Location: Newark
(9.4667°S, 159.8167°E)
Time: 05:08:18
(UTC+00:00)

Courier 1B Rocket - Pass Details

Date: 26 November 2019
Orbit: 920 x 1202 km, 28.2° (Epoch: 12 December)

Event Time Altitude Azimuth Distance (km) Brightness Sun altitude
Rises 17:39:09 0° 230° (SW) 3,874 7.9 -16.8°
Reaches altitude 10° 17:42:29 10° 218° (SW) 2,865 7.3 -16.1°
Maximum altitude 17:48:09 26° 163° (SSE) 1,856 6.9 -14.8°
Drops below altitude 10° 17:53:31 10° 107° (ESE) 2,702 8.8 -13.6°
Sets 17:56:33 0° 95° (E) 3,611 9.5 -12.9°
